STARLINK-37501, 69296

Orbit data source: Space-Track

STARLINK-37501, 69296 is a payload satellite owned by SpaceX/Seattle (US) in SSO that was launched on Sat, 30 May 2026 UTC via an FALCON 9 launch vehicle from the Air Force Western Test Range (AFWTR). Payload-class satellites include a variety of spacecraft equipped with specific instruments for various scientific and technological missions. These include communications satellites like Starlink; space stations such as the ISS; scientific satellites like the Hubble; Earth observation satellites from companies like Planet Labs, Umbra, and HawkEye 360; GPS; miniature CubeSats for education and research; and military/defense satellites.

Loading next visibility...
Identifier
69296, 2026-119A
Orbit
SSO
Country
Flag of USUS
Related business
Manufacturer
SpaceX/Seattle
Mission
Operational Commercial Communications
Bus & Motor
STARLINK V2MO, Unknown motor
Mass
575 kg wet, ~530 kg dry
Launch date (UTC)
2026-05-30 (4 months ago)
Launch vehicle
FALCON 9
Launch site
Air Force Western Test Range (AFWTR)
Object type
Payload
Rocket body
Debris
Shape & HBR
Box + 1 Pan, 17.7 m
Radar Cross Section
41.120 m², Large (>1 m²)

Expand to show TLE details & history
Last TLE update: 16 hours ago

TLE from 16 hours ago
0 STARLINK-37501
1 69296U 26119A   26263.59308500  .00013616  00000-0  42320-3 0  9991
2 69296  97.2808 288.2641 0000773 110.8116 249.3210 15.33453965 18671
Epoch: 2026-09-20T14:14Z
TLE epoch observation values (Epoch: 2026-09-20T14:14:02.544Z)
Latitude
-0.00002°
Longitude
75.26846°
Altitude
468.816 km
Speed
7.632 km/s
True Right ascension
19h 13m 03s
True Declination
0° 00' 00"
Sunlit
Object was in daylight at epoch
Visualization orbit readout
Latitude
Unknown
Longitude
Unknown
Altitude
Unknown
Speed
Unknown
Apparent Right ascension
Unknown
Apparent Declination
Unknown
Sunlit
N/A
Visualization observer readout
Local Sidereal Time
23:10:35
Azimuth
Unknown
Elevation
Unknown
Doppler factor
Unknown
Orbital elements
Apogee altitude
462.988 km
Perigee altitude
461.93 km
Semi-major axis
6,840.596 km
Eccentricity
0.00008
Inclination
97.2808°
RAAN
288.2641°
Arg. of periapsis
110.8116°
True anomaly
249.31271°
Mean anomaly
249.321°
Eccentric anomaly
249.31686°
Mean motion
3.83621 °/min
Orbital period
93.84 mins
BSTAR
0.0004232
Loading maneuver chart data...
Computing Atmospheric mass density...
Loading historical data...
Loading historical data...
Loading historical data...
Loading historical data...
Loading historical data...
Loading historical data...
Loading historical data...

Documentation

Showing up to 5 results
|